sat.trackr.live / text

‹ back to catalog

KUIPER-00499

NORAD 68881 · 2026-095T

PAYLOAD ACTIVE UNKNOWN

§ Identity

Operator
Country
US
Launch date
2026-04-28
Launch site
AFETR
Launch vehicle
Mass (kg)
RCS (m²)

External: N2YO · Heavens-Above · Gunter

§ Orbital elements

Epoch: 2026-05-24T20:15:23.121504Z

Period
93.79 min
Inclination
51.8719°
Eccentricity
0.0007838
Mean motion
15.35302445 rev/d
Perigee alt
454.7 km
Apogee alt
465.4 km
Semi-major
6,838.2 km
B*
7.1884e-4
RAAN
355.5599°
Arg perigee
214.9079°
Mean anomaly
145.1394°
Rev number
413

§ Raw data

KUIPER-004991 68881U 26095T   26144.84401761  .00024740  00000+0  71884-3 0  99982 68881  51.8719 355.5599 0007838 214.9079 145.1394 15.35302445  4130

JSON: /api/v1/satellites/68881 · /tle

For live sub-satellite position, see the globe view (requires WebGL).

§ Visibility from observer

Set your observer location to see the next 7 days of passes ≥ 10°. The values pass through the URL so the page stays shareable.

No JS? Fill the form by hand. The geolocation button needs JavaScript.